Regional Weather Roundup
Issued by NWS

Home | Current Version | Previous Version | Text Only | Print | Product List | Glossary On
Versions: 1 2 3 4 5 6 7 8 9 10 11 12 13 14 15 16 17 18 19 20 21 22 23 24 25 26 27 28 29 30 31 32 33 34 35 36 37 38 39 40 41 42 43 44 45 46 47 48 49 50
000
ASUS43 KMKX 201421
RWRWI

WISCONSIN REGIONAL WEATHER ROUNDUP
NATIONAL WEATHER SERVICE MILWAUKEE/SULLIVAN WI
800 AM CST MON FEB 20 2017

NOTE: "FAIR" INDICATES FEW OR NO CLOUDS BELOW 12,000 FEET WITH NO
SIGNIFICANT WEATHER AND/OR OBSTRUCTIONS TO VISIBILITY.

WIZ001-002-006>008-014>016-023>028-201500-
NORTHWEST WISCONSIN

CITY           SKY/WX    TMP DP  RH WIND       PRES   REMARKS
SUPERIOR ARPT  CLOUDY    36  34  93 E10G16    29.91S WCI  28
ASHLAND        CLOUDY    46  35  65 VRB3      29.94R
HAYWARD        CLOUDY    47  37  68 S10G18    29.92R
SIREN          CLOUDY    48  38  70 SE12      29.86S
CUMBERLAND     CLOUDY    41  34  75 SE12      29.89F
RICE LAKE      CLOUDY    44  37  75 SE15      29.92S
CHETEK         CLOUDY    43  36  78 SE9       29.92F
LADYSMITH      CLOUDY    44  36  74 SE9       29.97S
EAU CLAIRE     CLOUDY    45  38  76 E10       29.90F
MENOMONIE      CLOUDY    43  38  82 E6        29.90S
NEW RICHMOND   CLOUDY    46  39  77 SE7       29.86S
OSCEOLA        CLOUDY    48  41  76 SE10G18   29.87S
$$

WIZ003>005-009-010-017-018-201500-
NORTH CENTRAL WISCONSIN

CITY           SKY/WX    TMP DP  RH WIND       PRES   REMARKS
MANITOWISH WTR CLOUDY    41  31  67 SE8G16    30.01F
ARBOR VITAE    CLOUDY    42  31  66 SE12G18   30.03S
WOODRUFF       CLOUDY    42  31  66 SE12G18   30.03S
RHINELANDER    CLOUDY    39  31  72 SE10      30.06F WCI  32
EAGLE RIVER    CLOUDY    38  27  63 SE8       30.05F WCI  33
LAND O LAKES   CLOUDY    41  28  61 SE9G18    30.07F
PHILLIPS       CLOUDY    41  34  74 SE8G16    29.98S
TOMAHAWK       CLOUDY    40  30  68 SE6       30.04S
MEDFORD        CLOUDY    40  33  76 SE10G20   30.00F WCI  33
MERRILL        NOT AVBL
$$

WIZ029-030-035-036-043>047-201500-
CENTRAL WISCONSIN

CITY           SKY/WX    TMP DP  RH WIND       PRES   REMARKS
WAUSAU         CLOUDY    38  30  73 SE10      30.05S WCI  31
MOSINEE        CLOUDY    39  30  70 E10       30.06S WCI  32
MARSHFIELD     CLOUDY    40  33  76 E10       30.00F WCI  33
STEVENS POINT  CLOUDY    37  30  76 E7        30.07S WCI  31
WAUPACA        CLOUDY    41  31  68 CALM      30.08F
WAUTOMA        CLOUDY    36  32  85 CALM      30.07F
WISC RAPIDS    CLOUDY    42  35  76 E7        30.04F
CAMP DOUGLAS   CLOUDY    44  39  81 SE10      30.00F
$$

WIZ011>013-019>022-031-037>040-048>050-201500-
NORTHEAST WISCONSIN

CITY           SKY/WX    TMP DP  RH WIND       PRES   REMARKS
ANTIGO         CLOUDY    35  30  82 SE13      30.08F WCI  27
SHAWANO        CLOUDY    35  32  88 NE3       30.13F
OCONTO         CLOUDY    37  33  84 E6        30.15S WCI  33
STURGEON BAY   NOT AVBL
GREEN BAY      MOSUNNY   42  34  73 SE7       30.13F
MANITOWOC      MOSUNNY   37  34  89 MISG      30.16S
APPLETON       PTSUNNY   39  27  60 E6        30.09R WCI  35
CLINTONVILLE   CLOUDY    36  32  87 E6        30.11F WCI  31
OSHKOSH        CLOUDY    42  33  70 SE7       30.09S
$$

WIZ032>034-041-042-053>061-201500-
SOUTHWEST WISCONSIN

CITY           SKY/WX    TMP DP  RH WIND       PRES   REMARKS
LA CROSSE      CLOUDY    54  46  74 SE10      29.93F
SPARTA         CLOUDY    51  46  83 E6        29.96F
VIROQUA        CLOUDY    48  45  90 SE14      29.95F
BOSCOBEL       CLOUDY    50  44  80 VRB3      29.99F
PRAIRIE DU CHI CLOUDY    49  44  82 SE8       29.98R HAZE
PLATTEVILLE    PTSUNNY   44  44 100 E15       30.00F
$$

WIZ056-057-062-063-064-067-068-201500-
SOUTH CENTRAL WISCONSIN

CITY           SKY/WX    TMP DP  RH WIND       PRES   REMARKS
REEDSBURG      PTSUNNY   49  46  91 SE5       30.01F
BARABOO/DELLS  PTSUNNY   48  43  80 SE9       30.03F
LONE ROCK      CLOUDY    48  43  82 E13       30.01F HAZE
MINERAL POINT  PTSUNNY   48  46  93 SE13      30.01F FOG
MADISON        CLOUDY    45  41  86 SE6       30.06S FOG
MIDDLETON      CLOUDY    46  43  90 E5        30.05F
WATERTOWN      MOSUNNY   44  41  91 SE12      30.09S
MONROE         PTSUNNY   45  45 100 SE10      30.04F FOG
JANESVILLE     MOSUNNY   46  45  93 SE8       30.08R FOG
$$

WIZ051-052-058>065-066-070>072-201500-
SOUTHEAST WISCONSIN

CITY           SKY/WX    TMP DP  RH WIND       PRES   REMARKS
MILWAUKEE      CLOUDY    43  36  76 SE8       30.14S
WAUKESHA       MOSUNNY   41  37  87 SE7       30.13S FOG
MILWAUKEE/TIMM SUNNY     36  30  80 CALM      30.15R
RACINE         MOSUNNY   43  36  76 S7        30.16S
KENOSHA        MOSUNNY   46  42  86 SE8       30.14S FOG
FOND DU LAC    MOSUNNY   43  34  70 SE12      30.10S
SHEBOYGAN      CLOUDY    40  32  73 SE5       30.15R
WEST BEND      MOSUNNY   34  32  93 CALM      30.14R
JUNEAU         MOSUNNY   44  40  87 SE12      30.10F
$$

LSZ147-162-201500-
LAKE SUPERIOR

STATION/POSITION TIME  TEMP    WIND        PRES    WAVE
                       AIR SEA DIR/SP/G            HT/PER
                 (UTC) (F)     (DEG/KT/KT) (MB)    (FT/S)
DEVILS ISLAND    1400   46     160/  6/  9 1014.3R
PORT WING        1340   35      20/  2/  3 1013.2R
SAXON HARBOR     1330   48     170/ 10/ 17 1013.2F
$$

LMZ867-665-643>646-201500-
LAKE MICHIGAN

STATION/POSITION TIME  TEMP    WIND        PRES    WAVE
                       AIR SEA DIR/SP/G            HT/PER
                 (UTC) (F)     (DEG/KT/KT) (MB)    (FT/S)
CHAMBERS ISLAND  1330   37      90/  4/  6 1021.3R
NORTHPORT PIER   1340   36     140/  6/  8 1022.4S
SISTER BAY       1335   39     110/ 11/ 17   N/A
ALGOMA LAKESHORE 1325             CALM       N/A
KEWAUNEE LAKESHO 1400   39      CALM  /  3 1020.8
SHEBOYGAN LAKESH 1400   40     160/ 10/ 11 1021.4R
PORT WASHINGTON  1330   41     160/  2/  3 1021.7S
MILWAUKEE LAKESH 1400   38     100/  2/  3   N/A
KENOSHA   LAKESH 1400   39     160/  9/ 10 1021.0
$$

TC  - TEMPERATURE IN CELSIUS
VSB - VISIBILITY IN STATUTE MILES
WCI - WIND CHILL INDEX
HX  - HEAT INDEX




USA.gov is the U.S. government's official web portal to all federal, state and local government web resources and services.